| time (UTC) | temp F | wind direction | speed knots | gust knots | rain 1hr in | rain 24hr in | rain mn in | humidity % | barometer mb |
| 20260506143205 | 72 | 180 | 6.1 | 13.9 | 0.00 | 0.00 | 0.00 | 58 | 1005.7 |
| 20260506142705 | 71 | 191 | 4.3 | 13.9 | 0.00 | 0.00 | 0.00 | 59 | 1005.9 |
| 20260506142205 | 71 | 187 | 6.1 | 13.9 | 0.00 | 0.00 | 0.00 | 59 | 1006.0 |
| 20260506141205 | 72 | 188 | 3.5 | 13.0 | 0.00 | 0.00 | 0.00 | 59 | 1005.8 |
| 20260506140705 | 72 | 181 | 2.6 | 13.0 | 0.00 | 0.00 | 0.00 | 59 | 1005.9 |
| 20260506140205 | 71 | 129 | 4.3 | 12.2 | 0.00 | 0.00 | 0.00 | 60 | 1005.9 |
| 20260506135705 | 71 | 185 | 4.3 | 8.7 | 0.00 | 0.00 | 0.00 | 60 | 1005.9 |
| 20260506135205 | 71 | 200 | 3.5 | 11.3 | 0.00 | 0.00 | 0.00 | 61 | 1005.9 |
| 20260506134704 | 70 | 126 | 5.2 | 13.9 | 0.00 | 0.00 | 0.00 | 62 | 1006.0 |
| 20260506134205 | 70 | 172 | 6.1 | 13.9 | 0.00 | 0.00 | 0.00 | 62 | 1006.0 |
| 20260506133705 | 70 | 175 | 6.1 | 11.3 | 0.00 | 0.00 | 0.00 | 62 | 1005.9 |
| 20260506133206 | 70 | 181 | 5.2 | 13.9 | 0.00 | 0.00 | 0.00 | 61 | 1006.0 |
| 20260506132705 | 70 | 113 | 6.1 | 13.9 | 0.00 | 0.00 | 0.00 | 62 | 1006.0 |
| 20260506132205 | 69 | 192 | 4.3 | 10.4 | 0.00 | 0.00 | 0.00 | 63 | 1006.2 |
| 20260506131705 | 69 | 144 | 5.2 | 10.4 | 0.00 | 0.00 | 0.00 | 64 | 1006.1 |
| 20260506130705 | 69 | 134 | 2.6 | 8.7 | 0.00 | 0.00 | 0.00 | 64 | 1005.9 |
| 20260506130205 | 69 | 178 | 4.3 | 10.4 | 0.00 | 0.00 | 0.00 | 65 | 1005.9 |
| 20260506125705 | 68 | 161 | 4.3 | 10.4 | 0.00 | 0.00 | 0.00 | 65 | 1005.9 |
| 20260506125205 | 68 | 142 | 4.3 | 10.4 | 0.00 | 0.00 | 0.00 | 66 | 1005.9 |
| 20260506124705 | 68 | 145 | 4.3 | 10.4 | 0.00 | 0.00 | 0.00 | 67 | 1005.9 |
| 20260506124205 | 67 | 153 | 3.5 | 10.4 | 0.00 | 0.00 | 0.00 | 67 | 1005.9 |
| 20260506123207 | 67 | 172 | 1.7 | 10.4 | 0.00 | 0.00 | 0.00 | 68 | 1006.1 |
| 20260506122705 | 67 | 167 | 1.7 | 11.3 | 0.00 | 0.00 | 0.00 | 68 | 1006.1 |
| 20260506122205 | 66 | 82 | 4.3 | 11.3 | 0.00 | 0.00 | 0.00 | 69 | 1006.1 |
| 20260506121705 | 66 | 168 | 3.5 | 7.8 | 0.00 | 0.00 | 0.00 | 69 | 1006.2 |
| 20260506121205 | 66 | 92 | 1.7 | 11.3 | 0.00 | 0.00 | 0.00 | 69 | 1006.4 |
| 20260506120205 | 66 | 146 | 1.7 | 10.4 | 0.00 | 0.00 | 0.00 | 71 | 1006.4 |
| 20260506115705 | 66 | 88 | 5.2 | 10.4 | 0.00 | 0.00 | 0.00 | 71 | 1006.5 |
| 20260506115205 | 65 | 141 | 1.7 | 8.7 | 0.00 | 0.00 | 0.00 | 71 | 1006.4 |
| 20260506114705 | 65 | 179 | 2.6 | 8.7 | 0.00 | 0.00 | 0.00 | 72 | 1006.5 |
| 20260506114205 | 65 | 109 | 2.6 | 10.4 | 0.00 | 0.00 | 0.00 | 72 | 1006.5 |
| 20260506113705 | 65 | 130 | 2.6 | 10.4 | 0.00 | 0.00 | 0.00 | 72 | 1006.5 |
| 20260506112705 | 64 | 146 | 2.6 | 7.0 | 0.00 | 0.00 | 0.00 | 73 | 1006.6 |
| 20260506112205 | 64 | 106 | 2.6 | 7.0 | 0.00 | 0.00 | 0.00 | 74 | 1006.6 |
| 20260506111205 | 64 | 168 | 4.3 | 7.8 | 0.00 | 0.00 | 0.00 | 74 | 1006.4 |
| 20260506110705 | 64 | 138 | 4.3 | 8.7 | 0.00 | 0.00 | 0.00 | 74 | 1006.4 |
| 20260506110205 | 64 | 139 | 3.5 | 8.7 | 0.00 | 0.00 | 0.00 | 75 | 1006.3 |
| 20260506105705 | 64 | 133 | 4.3 | 8.7 | 0.00 | 0.00 | 0.00 | 75 | 1006.3 |
| 20260506105204 | 64 | 132 | 1.7 | 7.0 | 0.00 | 0.00 | 0.00 | 75 | 1006.3 |
| 20260506104206 | 63 | 152 | 2.6 | 7.0 | 0.00 | 0.00 | 0.00 | 75 | 1006.5 |
| 20260506103706 | 63 | 134 | 2.6 | 7.8 | 0.00 | 0.00 | 0.00 | 76 | 1006.4 |
| 20260506103205 | 63 | 135 | 3.5 | 7.8 | 0.00 | 0.00 | 0.00 | 76 | 1006.3 |
| 20260506102205 | 63 | 158 | 3.5 | 7.8 | 0.00 | 0.00 | 0.00 | 76 | 1006.3 |
| 20260506101705 | 63 | 144 | 4.3 | 8.7 | 0.00 | 0.00 | 0.00 | 76 | 1006.3 |
| 20260506101205 | 63 | 138 | 4.3 | 10.4 | 0.00 | 0.00 | 0.00 | 76 | 1006.2 |
| 20260506100704 | 63 | 132 | 2.6 | 10.4 | 0.00 | 0.00 | 0.00 | 76 | 1006.2 |
| 20260506095204 | 63 | 151 | 2.6 | 8.7 | 0.00 | 0.00 | 0.00 | 76 | 1006.2 |
| 20260506094704 | 63 | 159 | 5.2 | 10.4 | 0.00 | 0.00 | 0.00 | 75 | 1006.2 |
| 20260506094204 | 63 | 154 | 4.3 | 10.4 | 0.00 | 0.00 | 0.00 | 76 | 1006.2 |
| 20260506093705 | 63 | 142 | 4.3 | 10.4 | 0.00 | 0.00 | 0.00 | 76 | 1006.2 |
| 20260506093205 | 63 | 153 | 3.5 | 8.7 | 0.00 | 0.00 | 0.00 | 76 | 1006.1 |
| 20260506092705 | 63 | 139 | 4.3 | 10.4 | 0.00 | 0.00 | 0.00 | 76 | 1006.2 |
| 20260506092205 | 63 | 150 | 4.3 | 10.4 | 0.00 | 0.00 | 0.00 | 75 | 1006.2 |
| 20260506091705 | 64 | 147 | 5.2 | 10.4 | 0.00 | 0.00 | 0.00 | 75 | 1006.2 |
| 20260506091205 | 64 | 96 | 4.3 | 8.7 | 0.00 | 0.00 | 0.00 | 75 | 1006.2 |
| 20260506090705 | 64 | 143 | 2.6 | 8.7 | 0.00 | 0.00 | 0.00 | 75 | 1006.3 |
| 20260506090204 | 64 | 147 | 4.3 | 8.7 | 0.00 | 0.00 | 0.00 | 75 | 1006.3 |
| 20260506085705 | 64 | 148 | 2.6 | 10.4 | 0.00 | 0.00 | 0.00 | 75 | 1006.3 |
| 20260506085205 | 64 | 145 | 4.3 | 10.4 | 0.00 | 0.00 | 0.00 | 75 | 1006.4 |
| 20260506084705 | 64 | 136 | 4.3 | 10.4 | 0.00 | 0.00 | 0.00 | 75 | 1006.4 |
| 20260506084205 | 64 | 125 | 5.2 | 10.4 | 0.00 | 0.00 | 0.00 | 75 | 1006.4 |
| 20260506083705 | 64 | 148 | 5.2 | 10.4 | 0.00 | 0.00 | 0.00 | 75 | 1006.4 |
| 20260506083205 | 64 | 148 | 5.2 | 10.4 | 0.00 | 0.00 | 0.00 | 75 | 1006.3 |
| 20260506082704 | 64 | 162 | 5.2 | 10.4 | 0.00 | 0.00 | 0.00 | 75 | 1006.4 |
| 20260506082205 | 64 | 146 | 4.3 | 10.4 | 0.00 | 0.00 | 0.00 | 75 | 1006.5 |
| 20260506081704 | 64 | 119 | 5.2 | 10.4 | 0.00 | 0.00 | 0.00 | 75 | 1006.5 |
| 20260506081204 | 64 | 141 | 3.5 | 10.4 | 0.00 | 0.00 | 0.00 | 74 | 1006.5 |
| 20260506080704 | 64 | 130 | 5.2 | 10.4 | 0.00 | 0.00 | 0.00 | 74 | 1006.5 |
| 20260506080205 | 64 | 139 | 4.3 | 10.4 | 0.00 | 0.00 | 0.00 | 74 | 1006.5 |
| 20260506073204 | 65 | 146 | 6.1 | 11.3 | 0.00 | 0.00 | 0.00 | 72 | 1006.6 |
| 20260506072705 | 65 | 169 | 5.2 | 11.3 | 0.00 | 0.00 | 0.00 | 71 | 1006.5 |
| 20260506072205 | 65 | 146 | 6.1 | 10.4 | 0.00 | 0.00 | 0.00 | 71 | 1006.6 |
| 20260506071205 | 65 | 144 | 6.1 | 11.3 | 0.00 | 0.00 | 0.00 | 70 | 1006.7 |
| 20260506070705 | 65 | 121 | 5.2 | 11.3 | 0.00 | 0.00 | 0.00 | 70 | 1006.8 |
| 20260506070205 | 65 | 142 | 4.3 | 8.7 | 0.00 | 0.00 | 0.00 | 70 | 1006.7 |
| 20260506062205 | 67 | 172 | 2.6 | 7.8 | 0.00 | 0.00 | 0.00 | 67 | 1006.7 |
| 20260506061706 | 67 | 152 | 2.6 | 10.4 | 0.00 | 0.00 | 0.00 | 67 | 1006.7 |
| 20260506060704 | 67 | 136 | 4.3 | 8.7 | 0.00 | 0.00 | 0.00 | 66 | 1006.8 |
| 20260506060204 | 67 | 148 | 5.2 | 8.7 | 0.00 | 0.00 | 0.00 | 66 | 1006.8 |
| 20260506051204 | 67 | 176 | 2.6 | 7.0 | 0.00 | 0.00 | 0.00 | 64 | 1007.3 |
| 20260506050704 | 67 | 145 | 1.7 | 5.2 | 0.00 | 0.00 | 0.00 | 64 | 1007.3 |
| 20260506050204 | 67 | 144 | 2.6 | 7.0 | 0.00 | 0.00 | 0.00 | 64 | 1007.3 |
| 20260506044707 | 68 | 144 | 3.5 | 7.0 | 0.00 | 0.00 | 0.00 | 62 | 1007.3 |
| 20260506044206 | 68 | 137 | 1.7 | 6.1 | 0.00 | 0.00 | 0.00 | 62 | 1007.4 |
| 20260506043707 | 68 | 144 | 1.7 | 7.8 | 0.00 | 0.00 | 0.00 | 61 | 1007.3 |
| 20260506043206 | 69 | 86 | 2.6 | 7.8 | 0.00 | 0.00 | 0.00 | 61 | 1007.3 |
| 20260506042706 | 69 | 152 | 2.6 | 7.8 | 0.00 | 0.00 | 0.00 | 60 | 1007.3 |
| 20260506042206 | 69 | 168 | 3.5 | 8.7 | 0.00 | 0.00 | 0.00 | 60 | 1007.2 |
| 20260506041708 | 69 | 175 | 2.6 | 8.7 | 0.00 | 0.00 | 0.00 | 59 | 1007.3 |
| 20260506040709 | 69 | 178 | 2.6 | 8.7 | 0.00 | 0.00 | 0.00 | 58 | 1007.1 |
| 20260506040206 | 70 | 144 | 4.3 | 8.7 | 0.00 | 0.00 | 0.00 | 58 | 1007.2 |
| 20260506035707 | 70 | 156 | 2.6 | 10.4 | 0.00 | 0.00 | 0.00 | 58 | 1007.1 |
| 20260506035206 | 70 | 215 | 4.3 | 10.4 | 0.00 | 0.00 | 0.00 | 57 | 1007.1 |
| 20260506034706 | 70 | 180 | 5.2 | 10.4 | 0.00 | 0.00 | 0.00 | 57 | 1007.2 |
| 20260506034206 | 70 | 175 | 4.3 | 10.4 | 0.00 | 0.00 | 0.00 | 57 | 1007.2 |
| 20260506033707 | 70 | 169 | 5.2 | 12.2 | 0.00 | 0.00 | 0.00 | 57 | 1007.2 |
| 20260506033207 | 69 | 10 | 6.1 | 12.2 | 0.00 | 0.00 | 0.00 | 57 | 1007.1 |
| 20260506032706 | 69 | 155 | 5.2 | 10.4 | 0.00 | 0.00 | 0.00 | 57 | 1007.1 |
| 20260506031706 | 69 | 165 | 2.6 | 7.8 | 0.00 | 0.00 | 0.00 | 58 | 1007.0 |
| 20260506031207 | 69 | 157 | 1.7 | 5.2 | 0.00 | 0.00 | 0.00 | 58 | 1006.9 |
| 20260506030706 | 69 | 169 | 3.5 | 6.1 | 0.00 | 0.00 | 0.00 | 58 | 1006.9 |
| 20260506030206 | 69 | 156 | 1.7 | 6.1 | 0.00 | 0.00 | 0.00 | 58 | 1006.8 |
| 20260506025706 | 69 | 139 | 2.6 | 6.1 | 0.00 | 0.00 | 0.00 | 58 | 1006.9 |
| 20260506025207 | 69 | 152 | 2.6 | 7.8 | 0.00 | 0.00 | 0.00 | 58 | 1007.0 |
| 20260506024206 | 69 | 145 | 3.5 | 7.8 | 0.00 | 0.00 | 0.00 | 58 | 1007.1 |
| 20260506023706 | 69 | 127 | 2.6 | 7.8 | 0.00 | 0.00 | 0.00 | 57 | 1007.0 |
| 20260506023207 | 69 | 163 | 4.3 | 7.8 | 0.00 | 0.00 | 0.00 | 57 | 1007.0 |
| 20260506022706 | 69 | 145 | 2.6 | 10.4 | 0.00 | 0.00 | 0.00 | 57 | 1007.1 |
| 20260506022206 | 69 | 146 | 4.3 | 10.4 | 0.00 | 0.00 | 0.00 | 57 | 1007.0 |
| 20260506021706 | 70 | 156 | 2.6 | 10.4 | 0.00 | 0.00 | 0.00 | 57 | 1006.9 |
| 20260506021207 | 70 | 146 | 4.3 | 13.0 | 0.00 | 0.00 | 0.00 | 56 | 1006.9 |
| 20260506020706 | 70 | 175 | 4.3 | 13.0 | 0.00 | 0.00 | 0.00 | 56 | 1007.0 |
| 20260506015707 | 70 | 123 | 4.3 | 12.2 | 0.00 | 0.00 | 0.00 | 56 | 1006.9 |
| 20260506014707 | 70 | 148 | 4.3 | 11.3 | 0.00 | 0.00 | 0.00 | 55 | 1006.8 |
| 20260506014207 | 70 | 142 | 5.2 | 11.3 | 0.00 | 0.00 | 0.00 | 55 | 1006.8 |
| 20260506013706 | 71 | 148 | 3.5 | 10.4 | 0.00 | 0.00 | 0.00 | 54 | 1006.7 |
| 20260506013206 | 71 | 128 | 4.3 | 8.7 | 0.00 | 0.00 | 0.00 | 54 | 1006.7 |
| 20260506012707 | 71 | 145 | 3.5 | 10.4 | 0.00 | 0.00 | 0.00 | 53 | 1006.7 |
| 20260506012206 | 71 | 144 | 4.3 | 10.4 | 0.00 | 0.00 | 0.00 | 53 | 1006.6 |
| 20260506011706 | 71 | 153 | 5.2 | 10.4 | 0.00 | 0.00 | 0.00 | 53 | 1006.5 |
| 20260506011206 | 71 | 145 | 5.2 | 13.0 | 0.00 | 0.00 | 0.00 | 53 | 1006.5 |
| 20260506010706 | 71 | 143 | 5.2 | 13.0 | 0.00 | 0.00 | 0.00 | 52 | 1006.4 |
| 20260506010206 | 71 | 152 | 4.3 | 13.9 | 0.00 | 0.00 | 0.00 | 52 | 1006.3 |
| 20260506005706 | 71 | 119 | 5.2 | 13.9 | 0.00 | 0.00 | 0.00 | 52 | 1006.2 |
| 20260506005206 | 71 | 146 | 5.2 | 14.8 | 0.00 | 0.00 | 0.00 | 52 | 1006.1 |
| 20260506004206 | 72 | 145 | 7.8 | 13.0 | 0.00 | 0.00 | 0.00 | 50 | 1006.1 |
| 20260506003706 | 73 | 150 | 5.2 | 13.0 | 0.00 | 0.00 | 0.00 | 49 | 1006.0 |
| 20260506003207 | 74 | 141 | 6.1 | 13.0 | 0.00 | 0.00 | 0.00 | 46 | 1006.0 |
| 20260506002706 | 75 | 140 | 6.1 | 11.3 | 0.00 | 0.00 | 0.00 | 44 | 1005.9 |
| 20260506001706 | 75 | 145 | 2.6 | 10.4 | 0.00 | 0.00 | 0.00 | 42 | 1005.6 |
| 20260506001206 | 75 | 138 | 3.5 | 10.4 | 0.00 | 0.00 | 0.00 | 42 | 1005.7 |
| 20260506000706 | 75 | 152 | 4.3 | 10.4 | 0.00 | 0.00 | 0.00 | 42 | 1005.6 |
| 20260506000206 | 75 | 169 | 3.5 | 8.7 | 0.00 | 0.00 | 0.00 | 43 | 1005.6 |
| 20260505234706 | 75 | 161 | 2.6 | 8.7 | 0.00 | 0.00 | 0.00 | 43 | 1005.3 |
| 20260505234207 | 75 | 141 | 4.3 | 10.4 | 0.00 | 0.00 | 0.00 | 43 | 1005.2 |
| 20260505233706 | 76 | 150 | 5.2 | 10.4 | 0.00 | 0.00 | 0.00 | 43 | 1005.1 |
| 20260505233206 | 77 | 143 | 6.1 | 11.3 | 0.00 | 0.00 | 0.00 | 41 | 1005.2 |
| 20260505232706 | 78 | 148 | 5.2 | 11.3 | 0.00 | 0.00 | 0.00 | 39 | 1005.0 |
| 20260505232205 | 79 | 134 | 4.3 | 11.3 | 0.00 | 0.00 | 0.00 | 38 | 1004.8 |
| 20260505231706 | 80 | 157 | 2.6 | 8.7 | 0.00 | 0.00 | 0.00 | 36 | 1004.7 |
| 20260505231207 | 81 | 143 | 4.3 | 15.6 | 0.00 | 0.00 | 0.00 | 34 | 1004.6 |
| 20260505230706 | 82 | 192 | 4.3 | 17.4 | 0.00 | 0.00 | 0.00 | 27 | 1004.6 |
| 20260505230206 | 82 | 193 | 7.0 | 17.4 | 0.00 | 0.00 | 0.00 | 26 | 1004.4 |
| 20260505225706 | 82 | 182 | 7.0 | 18.2 | 0.00 | 0.00 | 0.00 | 26 | 1004.5 |
| 20260505225206 | 82 | 185 | 8.7 | 18.2 | 0.00 | 0.00 | 0.00 | 26 | 1004.4 |
| 20260505224707 | 82 | 192 | 10.4 | 18.2 | 0.00 | 0.00 | 0.00 | 25 | 1004.4 |
| 20260505224206 | 83 | 170 | 5.2 | 14.8 | 0.00 | 0.00 | 0.00 | 25 | 1004.3 |
| 20260505223206 | 83 | 215 | 9.6 | 17.4 | 0.00 | 0.00 | 0.00 | 25 | 1004.4 |
| 20260505222706 | 83 | 204 | 5.2 | 15.6 | 0.00 | 0.00 | 0.00 | 25 | 1004.3 |
| 20260505222206 | 83 | 232 | 7.0 | 15.6 | 0.00 | 0.00 | 0.00 | 26 | 1004.3 |
| 20260505221205 | 83 | 209 | 5.2 | 14.8 | 0.00 | 0.00 | 0.00 | 29 | 1004.2 |
| 20260505220706 | 83 | 177 | 7.0 | 14.8 | 0.00 | 0.00 | 0.00 | 30 | 1004.1 |
| 20260505220206 | 84 | 180 | 6.1 | 14.8 | 0.00 | 0.00 | 0.00 | 30 | 1004.0 |
| 20260505215706 | 84 | 149 | 7.8 | 14.8 | 0.00 | 0.00 | 0.00 | 30 | 1003.9 |
| 20260505214706 | 84 | 205 | 8.7 | 18.2 | 0.00 | 0.00 | 0.00 | 28 | 1003.9 |
| 20260505214205 | 84 | 208 | 8.7 | 18.2 | 0.00 | 0.00 | 0.00 | 27 | 1003.8 |
| 20260505213707 | 84 | 210 | 5.2 | 18.2 | 0.00 | 0.00 | 0.00 | 28 | 1003.9 |
| 20260505213205 | 84 | 178 | 7.8 | 18.2 | 0.00 | 0.00 | 0.00 | 28 | 1003.7 |
| 20260505212706 | 84 | 172 | 7.8 | 20.0 | 0.00 | 0.00 | 0.00 | 28 | 1003.7 |
| 20260505212205 | 84 | 176 | 7.8 | 20.0 | 0.00 | 0.00 | 0.00 | 28 | 1003.6 |
| 20260505210705 | 84 | 185 | 5.2 | 20.9 | 0.00 | 0.00 | 0.00 | 27 | 1003.6 |
| 20260505210206 | 85 | 213 | 7.0 | 22.6 | 0.00 | 0.00 | 0.00 | 27 | 1003.6 |
| 20260505205206 | 85 | 229 | 5.2 | 18.2 | 0.00 | 0.00 | 0.00 | 25 | 1003.6 |
| 20260505204705 | 85 | 193 | 8.7 | 18.2 | 0.00 | 0.00 | 0.00 | 25 | 1003.6 |
| 20260505203206 | 85 | 194 | 7.8 | 20.0 | 0.00 | 0.00 | 0.00 | 26 | 1003.8 |
| 20260505202705 | 85 | 177 | 3.5 | 17.4 | 0.00 | 0.00 | 0.00 | 26 | 1003.8 |
| 20260505202206 | 85 | 184 | 5.2 | 14.8 | 0.00 | 0.00 | 0.00 | 27 | 1003.7 |
| 20260505201706 | 85 | 179 | 7.8 | 17.4 | 0.00 | 0.00 | 0.00 | 27 | 1003.8 |
| 20260505201205 | 85 | 145 | 6.1 | 17.4 | 0.00 | 0.00 | 0.00 | 26 | 1003.9 |
| 20260505200706 | 85 | 157 | 8.7 | 17.4 | 0.00 | 0.00 | 0.00 | 26 | 1004.0 |
| 20260505200206 | 82 | 191 | 5.2 | 17.4 | 0.00 | 0.00 | 0.00 | 31 | 1004.1 |
| 20260505194706 | 81 | 140 | 4.3 | 10.4 | 0.00 | 0.00 | 0.00 | 34 | 1004.2 |
| 20260505194206 | 81 | 151 | 4.3 | 10.4 | 0.00 | 0.00 | 0.00 | 36 | 1004.3 |
| 20260505193707 | 80 | 145 | 4.3 | 10.4 | 0.00 | 0.00 | 0.00 | 37 | 1004.3 |
| 20260505193258 | 80 | 152 | 5.2 | 8.7 | 0.00 | 0.00 | 0.00 | 37 | 1004.5 |
| 20260505190706 | 81 | 138 | 4.3 | 10.4 | 0.00 | 0.00 | 0.00 | 38 | 1005.0 |
| 20260505190206 | 81 | 240 | 2.6 | 10.4 | 0.00 | 0.00 | 0.00 | 38 | 1005.1 |
| 20260505185706 | 80 | 152 | 3.5 | 10.4 | 0.00 | 0.00 | 0.00 | 39 | 1005.2 |
| 20260505185205 | 81 | 145 | 4.3 | 10.4 | 0.00 | 0.00 | 0.00 | 38 | 1005.3 |
| 20260505184706 | 80 | 137 | 4.3 | 10.4 | 0.00 | 0.00 | 0.00 | 39 | 1005.3 |
| 20260505184206 | 80 | 160 | 5.2 | 10.4 | 0.00 | 0.00 | 0.00 | 39 | 1005.4 |
| 20260505183706 | 80 | 144 | 6.1 | 11.3 | 0.00 | 0.00 | 0.00 | 39 | 1005.4 |
| 20260505183206 | 80 | 134 | 6.1 | 11.3 | 0.00 | 0.00 | 0.00 | 38 | 1005.5 |
| 20260505182705 | 80 | 135 | 4.3 | 10.4 | 0.00 | 0.00 | 0.00 | 39 | 1005.5 |
| 20260505182205 | 80 | 161 | 4.3 | 10.4 | 0.00 | 0.00 | 0.00 | 39 | 1005.5 |
| 20260505181706 | 80 | 138 | 4.3 | 10.4 | 0.00 | 0.00 | 0.00 | 39 | 1005.6 |
| 20260505181205 | 80 | 156 | 4.3 | 10.4 | 0.00 | 0.00 | 0.00 | 39 | 1005.4 |
| 20260505180206 | 80 | 121 | 5.2 | 14.8 | 0.00 | 0.00 | 0.00 | 39 | 1005.7 |
| 20260505175705 | 81 | 150 | 5.2 | 14.8 | 0.00 | 0.00 | 0.00 | 38 | 1005.7 |
| 20260505175206 | 81 | 162 | 5.2 | 10.4 | 0.00 | 0.00 | 0.00 | 39 | 1005.8 |
| 20260505174705 | 81 | 134 | 3.5 | 8.7 | 0.00 | 0.00 | 0.00 | 38 | 1005.9 |
| 20260505174206 | 80 | 171 | 4.3 | 10.4 | 0.00 | 0.00 | 0.00 | 39 | 1005.8 |
| 20260505173705 | 79 | 139 | 5.2 | 11.3 | 0.00 | 0.00 | 0.00 | 40 | 1005.8 |
| 20260505173206 | 79 | 154 | 5.2 | 11.3 | 0.00 | 0.00 | 0.00 | 40 | 1006.0 |
| 20260505172706 | 79 | 156 | 5.2 | 11.3 | 0.00 | 0.00 | 0.00 | 40 | 1006.0 |
| 20260505172205 | 79 | 133 | 5.2 | 10.4 | 0.00 | 0.00 | 0.00 | 40 | 1006.0 |
| 20260505171706 | 79 | 159 | 4.3 | 10.4 | 0.00 | 0.00 | 0.00 | 40 | 1006.1 |
| 20260505171205 | 79 | 143 | 5.2 | 10.4 | 0.00 | 0.00 | 0.00 | 41 | 1006.0 |
| 20260505170706 | 78 | 151 | 6.1 | 13.0 | 0.00 | 0.00 | 0.00 | 40 | 1006.0 |
| 20260505170206 | 78 | 137 | 6.1 | 13.0 | 0.00 | 0.00 | 0.00 | 41 | 1006.1 |
| 20260505165705 | 78 | 138 | 5.2 | 13.0 | 0.00 | 0.00 | 0.00 | 41 | 1006.2 |
| 20260505165205 | 78 | 149 | 4.3 | 11.3 | 0.00 | 0.00 | 0.00 | 41 | 1006.3 |
| 20260505164705 | 78 | 124 | 5.2 | 11.3 | 0.00 | 0.00 | 0.00 | 41 | 1006.4 |
| 20260505164205 | 78 | 165 | 1.7 | 10.4 | 0.00 | 0.00 | 0.00 | 41 | 1006.4 |
| 20260505163205 | 77 | 156 | 3.5 | 8.7 | 0.00 | 0.00 | 0.00 | 42 | 1006.6 |
| 20260505162705 | 77 | 141 | 4.3 | 10.4 | 0.00 | 0.00 | 0.00 | 43 | 1006.6 |
| 20260505162205 | 77 | 147 | 5.2 | 11.3 | 0.00 | 0.00 | 0.00 | 42 | 1006.7 |
| 20260505161705 | 77 | 178 | 5.2 | 11.3 | 0.00 | 0.00 | 0.00 | 43 | 1006.8 |
| 20260505161205 | 77 | 150 | 5.2 | 11.3 | 0.00 | 0.00 | 0.00 | 42 | 1006.8 |
| 20260505160706 | 79 | 147 | 5.2 | 11.3 | 0.00 | 0.00 | 0.00 | 41 | 1006.9 |
| 20260505152706 | 77 | 123 | 2.6 | 7.8 | 0.00 | 0.00 | 0.00 | 44 | 1007.0 |
| 20260505152205 | 76 | 147 | 1.7 | 7.8 | 0.00 | 0.00 | 0.00 | 45 | 1007.1 |
| 20260505151706 | 76 | 144 | 4.3 | 7.8 | 0.00 | 0.00 | 0.00 | 46 | 1007.1 |
| 20260505151205 | 75 | 127 | 3.5 | 7.8 | 0.00 | 0.00 | 0.00 | 46 | 1007.2 |
| 20260505150706 | 75 | 137 | 4.3 | 7.8 | 0.00 | 0.00 | 0.00 | 46 | 1007.2 |
| 20260505150205 | 75 | 141 | 2.6 | 7.8 | 0.00 | 0.00 | 0.00 | 47 | 1007.3 |